Probability
0 0 0 0 0 0 0 0 0 0 0 0 0 0 0 0 0 0 0 0 0 0 0 0 0 0 0 0 0 0 0 0 0 0 0 0 0 0 0 0 0 0 0 0 0 0 0 0 0
0 0 0 0 0 0 0 0 0 0 0 0 0 0 0 0 0 0 0 0 0 0 0 0 0 0 0 0 0 0 0 0 0 0 0 0 0 0 0 0 0 0 0 0 0 0 0 0 0
0 0 0 0 0 0 0 0 0 0 0 0 0 0 0 0 0 0 0 0 0 0 0 0 0 0 0 0 0 0 0 0 0 0 0 0 0 0 0 0 0 0 0 0 0 0 0 0 0
0 0 0 0 0 0 0 0 0 0 0 0 0 0 0 0 0 0 0 0 0 0 0 0 0 0 0 0 0 0 0 0 0 0 0 0 0 0 0 0 0 0 0 0 0 0 0 0 0
0 0 0 0 0 0 0 0 0 0 0 0 0 0 0 0 0 0 0 0 0 0 0 0 0 0 0 0 0 0 0 0 0 0 0 0 0 0 0 0 0 0 0 0 0 0 0 0 0
0 0 0 0 0 0 0 0 0 0 0 0 0 0 0 0 0 0 0 0 0 0 0 0 0 0 0 0 0 0 0 0 0 0 0 0 0 0 0 0 0 0 0 0 0 0 0 0 0
0 0 0 0 0 0 0 0 0 0 0 0 0 0 0 0 0 0 0 0 0 0 0 0 0 0 0 0 0 0 0 0 0 0 0 0 0 0 0 0 0 0 0 0 0 0 0 0 0
0 0 0 0 0 0 0 0 0 0 0 0 0 0 0 0 0 0 0 0 0 0 0 0 0 0 0 0 0 0 0 0 0 0 0 0 0 0 0 0 0 0 0 0 0 0 0 0 0
0 0 0 0 0 0 0 0 0 0 0 0 0 0 0 0 0 0 0 0 0 0 0 0 0 0 0 0 0 0 0 0 0 0 0 0 0 0 0 0 0 0 0 0 0 0 0 0 0
0 0 0 0 0 0 0 0 0 0 0 0 0 0 0 0 0 0 0 0 0 0 0 0 0 0 0 0 0 0 0 0 0 0 0 0 0 0 0 0 0 0 0 0 0 0 0 0 0
0 0 0 0 0 0 0 0 0 0 0 0 0 0 0 0 0 0 0 0 0 0 0 0 0 0 0 0 0 0 0 0 0 0 0 0 0 0 0 0 0 0 0 0 0 0 0 0 0
0 0 0 0 0 0 0 0 0 0 0 0 0 0 0 0 0 0 0 0 0 0 0 0 0 0 0 0 0 0 0 0 0 0 0 0 0 0 0 0 0 0 0 0 0 0 0 0 0
0 0 0 0 0 0 0 0 0 0 0 0 0 0 0 0 0 0 0 0 0 0 0 0 0 0 0 0 0 0 0 0 0 0 0 0 0 0 0 0 0 0 0 0 0 0 0 0 0
0 0 0 0 0 0 0 0 0 0 0 0 0 0 0 0 0 0 0 0 0 0 0 0 0 0 0 0 0 0 0 0 0 0 0 0 0 0 0 0 0 0 0 0 0 0 0 0 0
0 0 0 0 0 0 0 0 0 0 0 0 0 0 0 0 0 0 0 0 0 0 0 0 0 0 0 0 0 0 0 0 0 0 0 0 0 0 0 0 0 0 0 0 0 0 0 0 0
0 0 0 0 0 0 0 0 0 0 0 0 0 0 0 0 0 0 0 0 0 0 0 0 0 0 0 0 0 0 0 0 0 0 0 0 0 0 0 0 0 0 0 0 0 0 0 0 0
0 0 0 0 0 0 0 0 0 0 0 0 0 0 0 0 0 0 0 0 0 0 0 0 0 0 0 0 0 0 0 0 0 0 0 0 0 0 0 0 0 0 0 0 0 0 0 0 0
0 0 0 0 0 0 0 0 0 0 0 0 0 0 0 0 0 0 0 0 0 0 0 0 0 0 0 0 0 0 0 0 0 0 0 0 0 0 0 0 0 0 0 0 0 0 0 0 0
0 0 0 0 0 0 0 0 0 0 0 0 0 0 0 0 0 0 0 0 0 0 0 0 0 0 0 0 0 0 0 0 0 0 0 0 0 0 0 0 0 0 0 0 0 0 0 0 0
0 0 0 0 0 0 0 0 0 0 0 0 0 0 0 0 0 0 0 0 0 0 0 0 0 0 0 0 0 0 0 0 0 0 0 0 0 0 0 0 0 0 0 0 0 0 0 0 0
0 0 0 0 0 0 0 0 0 0 0 0 0 0 0 0 0 0 0 0 0 0 0 0 0 0 0 0 0 0 0 0 0 0 0 0 0 0 0 0 0 0 0 0 0 0 0 0 0
0 0 0 0 0 0 0 0 0 0 0 0 0 0 0 0 0 0 0 0 0 0 0 0 0 0 0 0 0 0 0 0 0 0 0 0 0 0 0 0 0 0 0 0 0 0 0 0 0
0 0 0 0 0 0 0 0 0 0 0 0 0 0 0 0 0 0 0 0 0 0 0 0 0 0 0 0 0 0 0 0 0 0 0 0 0 0 0 0 0 0 0 0 0 0 0 0 0
0 0 0 0 0 0 0 0 0 0 0 0 0 0 0 0 0 0 0 0 0 0 0 0 0 0 0 0 0 0 0 0 0 0 0 0 0 0 0 0 0 0 0 0 0 0 0 0 0
0 0 0 0 0 0 0 0 0 0 0 0 0 0 0 0 0 0 0 0 0 0 0 0 0 0 0 0 0 0 0 0 0 0 0 0 0 0 0 0 0 0 0 0 0 0 0 0 0
0 0 0 0 0 0 0 0 0 0 0 0 0 0 0 0 0 0 0 0 0 0 0 0 0 0 0 0 0 0 0 0 0 0 0 0 0 0 0 0 0 0 0 0 0 0 0 0 0
0 0 0 0 0 0 0 0 0 0 0 0 0 0 0 0 0 0 0 0 0 0 0 0 0 0 0 0 0 0 0 0 0 0 0 0 0 0 0 0 0 0 0 0 0 0 0 0 0
0 0 0 0 0 0 0 0 0 0 0 0 0 0 0 0 0 0 0 0 0 0 0 0 0 0 0 0 0 0 0 0 0 0 0 0 0 0 0 0 0 0 0 0 0 0 0 0 0
0 0 0 0 0 0 0 0 0 0 0 0 0 0 0 0 0 0 0 0 0 0 0 0 0 0 0 0 0 0 0 0 0 0 0 0 0 0 0 0 0 0 0 0 0 0 0 0 0
0 0 0 0 0 0 0 0 0 0 0 0 0 0 0 0 0 0 0 0 0 0 0 0 0 0 0 0 0 0 0 0 0 0 0 0 0 0 0 0 0 0 0 0 0 0 0 0 0
Wind_Speed
8 4 3 5 7 6 0 2 2 2 2 1 4 5 7 6 5 3 2 6 9 8 6 8 10 11 11 11 11 12 12 13 14 14 14 15 15 15 15 15 15 16 17 17 17 17 17 17 17
3 3 5 6 6 2 3 3 3 3 4 4 4 4 4 2 2 6 5 6 9 8 6 7 10 11 12 11 11 11 12 13 13 14 14 14 14 15 15 15 15 15 16 17 17 16 16 17 17
3 5 5 5 4 4 4 3 4 2 4 3 3 2 3 3 5 7 5 10 9 7 6 7 11 12 12 11 11 11 12 12 12 13 13 14 14 14 15 14 14 15 16 16 16 16 16 16 16
4 5 6 5 2 4 4 3 4 5 3 2 4 4 1 1 6 6 10 10 10 7 6 7 11 12 12 11 11 11 12 12 12 12 13 13 13 14 14 14 14 14 15 15 15 15 15 15 15
5 4 4 1 3 3 3 3 6 5 4 3 4 5 2 2 5 10 12 10 10 8 6 7 10 11 11 11 11 11 11 11 11 12 12 12 13 13 13 13 13 13 14 14 14 14 14 14 14
5 4 3 2 4 3 3 4 5 4 4 4 5 5 1 1 8 11 10 9 8 8 6 6 9 10 10 10 10 11 11 11 11 11 11 11 12 12 12 12 12 12 13 13 13 13 13 13 13
4 4 4 4 2 3 2 4 5 5 5 6 6 6 1 4 6 10 8 8 7 7 6 5 6 7 8 9 9 9 9 9 10 10 10 10 10 11 11 10 11 11 12 12 12 12 13 12 12
4 4 3 3 4 4 1 3 3 6 4 3 5 8 6 7 8 9 9 8 8 7 6 5 5 5 5 6 8 9 9 9 9 10 10 9 9 9 9 8 9 10 10 11 11 11 12 11 11
3 3 4 6 7 4 2 2 1 2 5 3 1 3 4 13 13 12 10 9 9 9 7 6 6 5 5 5 6 7 8 8 8 7 9 7 5 5 5 6 8 9 9 9 10 10 11 10 9
3 4 7 5 5 4 3 4 5 4 3 2 1 1 7 14 16 15 14 14 13 12 10 7 7 6 5 4 4 3 3 4 4 4 4 3 3 3 4 6 7 7 7 8 9 9 9 7 4
4 6 4 3 3 2 3 3 4 8 5 8 9 10 13 15 15 15 14 14 13 12 11 9 8 7 6 4 4 2 2 3 3 4 4 3 3 2 3 2 3 4 4 4 5 5 3 3 3
3 4 3 3 2 2 4 4 3 7 8 6 8 14 17 19 18 17 16 14 11 11 12 11 9 8 7 5 4 4 3 3 3 3 4 3 2 2 2 1 1 2 1 2 2 2 2 3 2
4 3 3 3 3 3 3 4 4 6 4 1 8 13 17 18 17 13 10 10 11 12 12 12 11 10 8 6 5 5 4 4 4 3 4 4 3 3 2 2 1 1 1 1 1 1 1 1 1
5 4 3 3 2 2 3 3 3 6 2 5 9 14 15 16 15 11 10 12 12 12 12 11 12 11 9 7 6 5 5 4 4 4 4 5 4 4 3 3 2 2 2 2 1 1 1 0 1
2 1 4 4 2 2 2 4 6 4 5 6 8 10 12 11 10 13 14 14 13 12 11 12 12 11 10 9 8 5 5 5 4 4 5 5 5 4 4 3 3 3 2 2 1 1 0 1 1
4 2 4 4 3 3 5 9 8 4 6 7 7 8 9 10 10 10 10 9 9 9 10 11 10 11 11 9 8 5 5 5 5 4 5 6 6 5 4 4 3 3 3 2 2 1 1 1 1
3 4 5 4 3 3 6 8 6 4 7 8 8 8 9 9 10 10 9 9 10 10 10 11 11 12 12 10 7 6 6 6 5 5 5 6 6 6 5 4 3 4 3 3 2 2 2 2 2
7 5 5 7 3 4 6 7 7 3 6 8 7 7 8 11 15 11 9 8 8 9 10 11 11 11 10 8 6 5 6 5 5 5 5 7 6 7 6 4 4 4 3 3 3 3 2 2 2
7 7 6 5 2 4 7 9 10 6 5 7 8 8 10 14 11 7 8 8 8 9 11 12 12 11 10 8 8 7 7 6 5 5 7 7 7 7 7 5 5 5 5 5 4 3 3 2 1
5 5 4 2 0 3 4 9 10 8 7 9 10 11 12 11 8 8 8 9 11 12 12 12 13 12 12 10 8 5 4 4 5 5 6 7 8 7 6 7 6 6 5 5 5 4 3 2 2
5 7 6 3 1 1 2 8 8 8 6 7 8 9 9 12 12 10 9 10 11 12 14 13 14 13 12 10 6 4 3 3 4 5 6 7 8 8 8 8 7 6 6 6 7 6 6 4 3
7 5 6 5 2 3 2 6 9 7 7 9 10 10 11 12 11 9 9 9 12 13 11 11 11 11 11 11 9 10 9 9 8 5 5 6 7 8 8 8 8 7 6 6 6 6 5 4 3
6 5 5 4 3 2 2 4 11 4 8 10 11 12 13 12 11 11 10 11 10 9 9 9 10 11 11 11 12 12 11 8 4 5 7 7 6 7 7 8 7 7 6 6 6 6 6 5 4
7 7 6 4 3 6 7 6 11 7 9 8 9 10 11 10 9 9 7 6 6 6 7 7 10 11 11 12 13 13 13 10 8 8 7 6 5 5 7 7 7 6 6 6 6 6 7 5 5
7 8 3 1 3 8 3 7 13 10 10 9 9 9 8 6 6 7 7 7 7 7 8 8 9 10 10 12 12 13 13 11 11 10 9 7 5 5 6 6 6 5 6 6 5 5 5 5 5
11 11 9 8 7 5 4 10 12 9 6 6 7 7 5 6 6 6 6 6 6 6 6 7 8 9 9 10 11 10 10 8 8 8 7 7 6 5 6 7 6 6 6 5 5 4 4 4 4
11 8 6 6 2 2 7 8 12 7 7 8 8 7 8 6 5 5 4 4 4 5 5 6 7 6 7 8 8 8 8 8 7 7 6 5 5 4 6 6 6 5 5 5 5 4 4 4 4
9 11 6 6 7 6 6 6 7 5 8 8 8 8 7 3 3 3 3 3 3 3 3 4 5 5 5 5 5 5 6 7 6 6 6 6 6 5 6 5 6 5 5 5 5 4 4 5 4
8 8 7 7 6 7 5 9 9 10 8 7 8 6 4 4 4 4 3 3 3 3 3 3 4 4 4 4 4 5 4 5 5 5 6 6 6 6 6 6 6 5 5 5 5 5 5 5 4
7 11 11 10 7 6 4 10 5 6 6 5 6 4 3 3 3 3 3 3 3 3 3 3 3 4 4 4 4 4 4 5 5 5 5 6 6 5 6 6 6 6 5 5 6 6 5 6 5
Wind_Direction
339 354 49 52 52 50 95 249 177 148 173 135 142 148 155 157 164 180 128 134 130 134 136 131 128 124 118 111 106 101 99 96 93 91 90 87 86 85 84 82 82 83 81 80 79 79 79 80 79
336 6 49 56 80 71 273 248 189 188 158 120 84 97 115 141 110 124 135 141 134 134 130 131 130 128 123 116 110 105 103 100 97 94 92 90 88 87 85 83 83 84 83 81 79 79 82 82 80
9 44 73 72 111 178 223 220 187 128 142 126 104 86 141 166 155 155 157 142 131 128 127 135 134 133 128 121 115 110 106 103 101 98 95 92 90 88 86 84 83 84 83 82 80 80 83 85 82
48 40 55 80 194 217 221 213 160 133 138 108 124 108 95 162 166 160 142 138 132 130 131 141 139 138 133 127 122 116 111 108 105 102 99 96 93 92 89 87 84 84 84 83 81 82 84 86 85
57 70 67 64 248 253 243 206 155 158 160 135 127 126 112 7 124 133 140 141 143 139 137 145 141 140 137 134 129 123 117 113 111 107 105 102 98 95 93 90 88 87 86 83 81 82 84 86 86
54 70 108 211 255 275 254 168 151 154 145 143 134 125 137 115 137 144 143 143 145 144 140 141 141 140 140 137 133 129 124 120 116 114 110 108 104 99 95 94 92 90 88 86 83 83 86 87 87
108 116 173 194 224 267 230 157 162 157 161 185 158 127 159 170 159 142 136 134 139 142 139 136 139 141 140 135 133 130 127 123 119 115 110 105 102 100 96 94 95 94 92 89 85 83 85 86 86
124 121 163 192 194 236 210 152 169 159 169 146 145 150 188 183 146 131 131 141 148 149 147 143 139 137 136 134 136 132 127 123 118 112 105 99 97 95 92 89 93 95 94 91 86 83 82 82 84
90 109 197 204 193 223 177 146 128 119 122 136 197 193 192 138 140 143 147 158 166 168 167 160 153 146 140 137 140 136 131 127 121 116 113 102 91 87 86 92 94 98 96 93 89 85 81 75 75
113 177 216 211 197 199 192 183 170 132 138 179 180 80 125 142 157 162 168 174 179 181 181 176 170 162 154 146 134 131 126 127 122 122 117 106 103 98 94 91 91 88 82 82 84 81 75 69 58
172 202 221 230 219 198 190 202 174 146 193 206 190 170 154 162 170 176 180 182 184 183 184 185 180 172 166 153 152 148 135 133 137 139 133 121 107 96 87 80 75 74 70 63 66 64 59 64 63
198 237 225 236 213 194 194 178 186 191 216 216 184 163 163 173 182 186 185 185 182 183 190 189 183 181 177 165 168 166 161 159 161 163 155 141 134 134 133 120 113 93 79 82 68 67 64 64 62
207 249 244 250 247 223 187 200 205 234 263 128 138 157 175 182 190 191 186 182 183 188 191 192 187 187 182 176 178 179 180 179 176 171 172 164 160 166 166 165 158 151 130 123 110 88 73 55 40
208 236 277 274 238 208 189 237 200 244 171 143 157 175 187 190 188 183 184 188 192 194 193 190 192 191 185 186 187 187 185 181 178 182 184 179 174 173 174 179 185 189 179 166 157 162 146 328 332
137 169 285 262 225 222 158 258 228 225 148 172 187 190 195 199 190 194 195 195 195 195 191 192 193 191 191 193 193 189 186 180 186 189 187 185 182 181 181 185 197 201 184 169 154 154 119 286 304
113 139 242 258 204 205 164 243 250 188 168 197 203 202 205 211 208 207 199 197 193 190 191 193 192 192 195 195 193 191 186 186 192 189 188 191 189 185 182 190 203 191 173 170 174 179 218 266 280
140 184 215 259 217 182 186 236 258 172 184 209 211 211 214 220 226 220 206 199 193 192 190 191 193 193 196 196 193 193 188 193 194 188 190 194 193 188 186 195 198 178 175 183 185 190 196 244 269
182 182 195 216 230 183 210 242 264 218 200 222 224 221 221 225 229 220 210 203 195 193 192 194 195 195 192 192 191 193 197 199 194 193 196 192 192 189 188 195 193 177 181 191 192 200 198 225 260
164 168 198 219 231 190 229 247 257 249 226 238 236 228 228 234 237 220 208 202 197 197 198 199 198 195 188 192 196 200 205 200 198 198 197 195 194 190 190 193 190 185 196 202 192 185 199 218 169
167 180 205 254 258 194 249 263 260 245 229 225 226 226 229 238 242 223 210 201 203 205 205 203 203 197 195 198 194 189 182 192 196 195 199 198 196 193 193 196 196 193 198 201 193 181 182 192 169
190 188 192 198 17 351 307 288 261 257 232 238 232 228 228 228 233 227 213 209 205 208 207 206 204 200 198 192 176 165 165 168 187 198 201 201 200 198 197 201 199 195 195 204 202 193 189 200 196
211 198 172 159 149 259 211 270 273 249 253 243 238 231 231 230 228 224 213 211 210 214 208 205 201 198 194 188 188 189 198 208 205 193 193 195 200 201 200 200 199 198 198 203 202 195 194 187 197
181 157 149 150 167 270 243 242 275 267 253 250 239 232 230 228 221 222 216 214 214 209 201 201 196 197 193 192 197 199 208 212 190 181 189 195 199 201 200 199 198 199 199 202 194 188 192 195 193
128 90 70 63 91 251 221 204 271 233 221 236 238 232 229 227 222 225 223 212 211 198 194 192 194 199 194 195 199 203 207 201 189 192 194 196 197 200 200 197 197 197 196 197 194 191 191 195 195
144 126 119 169 218 245 201 210 249 239 226 223 237 243 236 231 223 224 220 210 206 196 194 191 193 200 195 197 202 206 207 202 202 199 198 194 196 199 198 190 192 193 194 188 182 182 189 188 186
178 162 167 183 207 250 212 231 251 248 257 259 263 265 265 248 229 225 222 213 206 198 190 187 193 199 195 199 204 206 204 203 206 201 195 196 195 193 186 182 181 181 179 173 167 166 172 163 171
161 191 159 135 132 230 245 269 295 274 266 257 254 251 248 246 232 228 223 209 201 192 189 188 189 194 196 200 200 201 201 200 199 191 188 184 178 171 173 168 167 168 167 163 156 156 158 148 152
160 150 135 156 168 228 263 248 243 252 241 243 241 242 249 241 225 219 205 198 194 187 179 176 180 189 190 191 194 195 195 194 188 178 179 173 164 159 157 155 152 150 148 148 146 143 142 136 134
141 160 164 161 176 178 238 260 224 219 220 228 243 252 253 240 224 211 196 183 174 164 164 166 168 165 169 178 178 175 175 171 168 171 171 163 154 156 158 153 145 140 136 137 136 134 130 129 123
161 173 162 174 203 189 201 261 251 228 249 248 259 267 262 240 220 199 185 172 170 171 170 170 167 163 166 165 161 161 156 154 157 158 154 149 146 148 146 138 132 129 128 129 134 131 128 129 129